Year,Month,Day,Hour,Minute,Value (Times are PST for temperature in C)
2016,08,19,00,00,19.00
2016,08,19,00,01,19.00
2016,08,19,00,02,19.10
2016,08,19,00,03,19.20
2016,08,19,00,04,19.30
2016,08,19,00,05,19.40
2016,08,19,00,06,19.40
2016,08,19,00,07,19.40
2016,08,19,00,08,19.40
2016,08,19,00,09,19.40
2016,08,19,00,10,19.40
2016,08,19,00,11,19.30
2016,08,19,00,12,19.30
2016,08,19,00,13,19.30
2016,08,19,00,14,19.30
2016,08,19,00,15,19.30
2016,08,19,00,16,19.30
2016,08,19,00,17,19.40
2016,08,19,00,18,19.40
2016,08,19,00,19,19.40
2016,08,19,00,20,19.40
2016,08,19,00,21,19.40
2016,08,19,00,22,19.50
2016,08,19,00,23,19.60
2016,08,19,00,24,19.70
2016,08,19,00,25,19.80
2016,08,19,00,26,19.90
2016,08,19,00,27,20.00
2016,08,19,00,28,20.00
2016,08,19,00,29,20.00
2016,08,19,00,30,20.00
2016,08,19,00,31,20.00
2016,08,19,00,32,20.00
2016,08,19,00,33,20.00
2016,08,19,00,34,20.00
2016,08,19,00,35,19.90
2016,08,19,00,36,19.90
2016,08,19,00,37,19.80
2016,08,19,00,38,19.80
2016,08,19,00,39,19.70
2016,08,19,00,40,19.70
2016,08,19,00,41,19.70
2016,08,19,00,42,19.70
2016,08,19,00,43,19.70
2016,08,19,00,44,19.80
2016,08,19,00,45,19.80
2016,08,19,00,46,19.90
2016,08,19,00,47,20.00
2016,08,19,00,48,20.10
2016,08,19,00,49,20.20
2016,08,19,00,50,20.30
2016,08,19,00,51,20.40
2016,08,19,00,52,20.50
2016,08,19,00,53,20.50
2016,08,19,00,54,20.60
2016,08,19,00,55,20.60
2016,08,19,00,56,20.70
2016,08,19,00,57,20.80
2016,08,19,00,58,20.90
2016,08,19,00,59,20.90
2016,08,19,01,00,20.90
2016,08,19,01,01,20.90
2016,08,19,01,02,20.80
2016,08,19,01,03,20.80
2016,08,19,01,04,20.60
2016,08,19,01,05,20.40
2016,08,19,01,06,20.30
2016,08,19,01,07,20.10
2016,08,19,01,08,20.00
2016,08,19,01,09,19.90
2016,08,19,01,10,19.80
2016,08,19,01,11,19.80
2016,08,19,01,12,19.90
2016,08,19,01,13,20.10
2016,08,19,01,14,20.20
2016,08,19,01,15,20.30
2016,08,19,01,16,20.40
2016,08,19,01,17,20.50
2016,08,19,01,18,20.60
2016,08,19,01,19,20.60
2016,08,19,01,20,20.70
2016,08,19,01,21,20.80
2016,08,19,01,22,20.70
2016,08,19,01,23,20.70
2016,08,19,01,24,20.70
2016,08,19,01,25,20.70
2016,08,19,01,26,20.70
2016,08,19,01,27,20.60
2016,08,19,01,28,20.60
2016,08,19,01,29,20.60
2016,08,19,01,30,20.50
2016,08,19,01,31,20.50
2016,08,19,01,32,20.60
2016,08,19,01,33,20.60
2016,08,19,01,34,20.60
2016,08,19,01,35,20.60
2016,08,19,01,36,20.70
2016,08,19,01,37,20.70
2016,08,19,01,38,20.70
2016,08,19,01,39,20.80
2016,08,19,01,40,20.80
2016,08,19,01,41,20.90
2016,08,19,01,42,21.00
2016,08,19,01,43,21.20
2016,08,19,01,44,21.30
2016,08,19,01,45,21.30
2016,08,19,01,46,21.40
2016,08,19,01,47,21.40
2016,08,19,01,48,21.40
2016,08,19,01,49,21.50
2016,08,19,01,50,21.50
2016,08,19,01,51,21.50
2016,08,19,01,52,21.60
2016,08,19,01,53,21.60
2016,08,19,01,54,21.70
2016,08,19,01,55,21.70
2016,08,19,01,56,21.70
2016,08,19,01,57,21.70
2016,08,19,01,58,21.70
2016,08,19,01,59,21.70
2016,08,19,02,00,21.70
2016,08,19,02,01,21.70
2016,08,19,02,02,21.70
2016,08,19,02,03,21.70
2016,08,19,02,04,21.70
2016,08,19,02,05,21.70
2016,08,19,02,06,21.70
2016,08,19,02,07,21.80
2016,08,19,02,08,21.80
2016,08,19,02,09,21.80
2016,08,19,02,10,21.90
2016,08,19,02,11,21.90
2016,08,19,02,12,22.00
2016,08,19,02,13,22.00
2016,08,19,02,14,22.00
2016,08,19,02,15,22.00
2016,08,19,02,16,22.00
2016,08,19,02,17,21.90
2016,08,19,02,18,21.90
2016,08,19,02,19,21.90
2016,08,19,02,20,21.90
2016,08,19,02,21,21.90
2016,08,19,02,22,21.90
2016,08,19,02,23,21.90
2016,08,19,02,24,21.80
2016,08,19,02,25,21.80
2016,08,19,02,26,21.80
2016,08,19,02,27,21.80
2016,08,19,02,28,21.80
2016,08,19,02,29,21.80
2016,08,19,02,30,21.80
2016,08,19,02,31,21.70
2016,08,19,02,32,21.70
2016,08,19,02,33,21.70
2016,08,19,02,34,21.70
2016,08,19,02,35,21.60
2016,08,19,02,36,21.60
2016,08,19,02,37,21.60
2016,08,19,02,38,21.50
2016,08,19,02,39,21.50
2016,08,19,02,40,21.40
2016,08,19,02,41,21.40
2016,08,19,02,42,21.40
2016,08,19,02,43,21.40
2016,08,19,02,44,21.40
2016,08,19,02,45,21.30
2016,08,19,02,46,21.30
2016,08,19,02,47,21.30
2016,08,19,02,48,21.30
2016,08,19,02,49,21.30
2016,08,19,02,50,21.30
2016,08,19,02,51,21.30
2016,08,19,02,52,21.30
2016,08,19,02,53,21.30
2016,08,19,02,54,21.30
2016,08,19,02,55,21.20
2016,08,19,02,56,21.20
2016,08,19,02,57,21.20
2016,08,19,02,58,21.20
2016,08,19,02,59,21.10
2016,08,19,03,00,21.10
2016,08,19,03,01,21.10
2016,08,19,03,02,21.00
2016,08,19,03,03,21.00
2016,08,19,03,04,20.90
2016,08,19,03,05,20.90
2016,08,19,03,06,20.90
2016,08,19,03,07,20.90
2016,08,19,03,08,20.90
2016,08,19,03,09,20.80
2016,08,19,03,10,20.80
2016,08,19,03,11,20.80
2016,08,19,03,12,20.70
2016,08,19,03,13,20.70
2016,08,19,03,14,20.70
2016,08,19,03,15,20.60
2016,08,19,03,16,20.60
2016,08,19,03,17,20.50
2016,08,19,03,18,20.50
2016,08,19,03,19,20.40
2016,08,19,03,20,20.40
2016,08,19,03,21,20.30
2016,08,19,03,22,20.20
2016,08,19,03,23,20.10
2016,08,19,03,24,20.10
2016,08,19,03,25,20.00
2016,08,19,03,26,20.00
2016,08,19,03,27,20.00
2016,08,19,03,28,20.00
2016,08,19,03,29,20.10
2016,08,19,03,30,20.10
2016,08,19,03,31,20.10
2016,08,19,03,32,20.10
2016,08,19,03,33,20.10
2016,08,19,03,34,20.10
2016,08,19,03,35,20.10
2016,08,19,03,36,20.10
2016,08,19,03,37,20.10
2016,08,19,03,38,20.10
2016,08,19,03,39,20.10
2016,08,19,03,40,20.10
2016,08,19,03,41,20.00
2016,08,19,03,42,20.00
2016,08,19,03,43,19.90
2016,08,19,03,44,19.90
2016,08,19,03,45,19.90
2016,08,19,03,46,19.90
2016,08,19,03,47,19.80
2016,08,19,03,48,19.80
2016,08,19,03,49,19.70
2016,08,19,03,50,19.70
2016,08,19,03,51,19.60
2016,08,19,03,52,19.60
2016,08,19,03,53,19.50
2016,08,19,03,54,19.40
2016,08,19,03,55,19.40
2016,08,19,03,56,19.30
2016,08,19,03,57,19.30
2016,08,19,03,58,19.30
2016,08,19,03,59,19.30
2016,08,19,04,00,19.30
2016,08,19,04,01,19.30
2016,08,19,04,02,19.30
2016,08,19,04,03,19.30
2016,08,19,04,04,19.30
2016,08,19,04,05,19.30
2016,08,19,04,06,19.40
2016,08,19,04,07,19.40
2016,08,19,04,08,19.40
2016,08,19,04,09,19.40
2016,08,19,04,10,19.40
2016,08,19,04,11,19.40
2016,08,19,04,12,19.50
2016,08,19,04,13,19.40
2016,08,19,04,14,19.40
2016,08,19,04,15,19.40
2016,08,19,04,16,19.40
2016,08,19,04,17,19.40
2016,08,19,04,18,19.30
2016,08,19,04,19,19.20
2016,08,19,04,20,19.20
2016,08,19,04,21,19.10
2016,08,19,04,22,19.10
2016,08,19,04,23,19.10
2016,08,19,04,24,19.10
2016,08,19,04,25,19.00
2016,08,19,04,26,18.90
2016,08,19,04,27,18.90
2016,08,19,04,28,18.80
2016,08,19,04,29,18.80
2016,08,19,04,30,18.70
2016,08,19,04,31,18.70
2016,08,19,04,32,18.70
2016,08,19,04,33,18.60
2016,08,19,04,34,18.60
2016,08,19,04,35,18.60
2016,08,19,04,36,18.60
2016,08,19,04,37,18.50
2016,08,19,04,38,18.50
2016,08,19,04,39,18.40
2016,08,19,04,40,18.40
2016,08,19,04,41,18.30
2016,08,19,04,42,18.30
2016,08,19,04,43,18.20
2016,08,19,04,44,18.20
2016,08,19,04,45,18.20
2016,08,19,04,46,18.10
2016,08,19,04,47,18.00
2016,08,19,04,48,18.00
2016,08,19,04,49,18.00
2016,08,19,04,50,17.90
2016,08,19,04,51,17.90
2016,08,19,04,52,17.90
2016,08,19,04,53,17.80
2016,08,19,04,54,17.80
2016,08,19,04,55,17.70
2016,08,19,04,56,17.60
2016,08,19,04,57,17.50
2016,08,19,04,58,17.30
2016,08,19,04,59,17.20
2016,08,19,05,00,17.10
2016,08,19,05,01,17.00
2016,08,19,05,02,16.90
2016,08,19,05,03,16.80
2016,08,19,05,04,16.70
2016,08,19,05,05,16.60
2016,08,19,05,06,16.50
2016,08,19,05,07,16.50
2016,08,19,05,08,16.40
2016,08,19,05,09,16.30
2016,08,19,05,10,16.20
2016,08,19,05,11,16.20
2016,08,19,05,12,16.10
2016,08,19,05,13,16.10
2016,08,19,05,14,16.00
2016,08,19,05,15,15.90
2016,08,19,05,16,15.90
2016,08,19,05,17,15.90
2016,08,19,05,18,15.90
2016,08,19,05,19,15.90
2016,08,19,05,20,15.80
2016,08,19,05,21,15.80
2016,08,19,05,22,15.80
2016,08,19,05,23,15.80
2016,08,19,05,24,15.70
2016,08,19,05,25,15.70
2016,08,19,05,26,15.70
2016,08,19,05,27,15.70
2016,08,19,05,28,15.60
2016,08,19,05,29,15.60
2016,08,19,05,30,15.60
2016,08,19,05,31,15.60
2016,08,19,05,32,15.60
2016,08,19,05,33,15.50
2016,08,19,05,34,15.50
2016,08,19,05,35,15.40
2016,08,19,05,36,15.40
2016,08,19,05,37,15.40
2016,08,19,05,38,15.30
2016,08,19,05,39,15.30
2016,08,19,05,40,15.30
2016,08,19,05,41,15.30
2016,08,19,05,42,15.30
2016,08,19,05,43,15.30
2016,08,19,05,44,15.30
2016,08,19,05,45,15.30
2016,08,19,05,46,15.30
2016,08,19,05,47,15.30
2016,08,19,05,48,15.40
2016,08,19,05,49,15.40
2016,08,19,05,50,15.40
2016,08,19,05,51,15.40
2016,08,19,05,52,15.40
2016,08,19,05,53,15.40
2016,08,19,05,54,15.40
2016,08,19,05,55,15.40
2016,08,19,05,56,15.30
2016,08,19,05,57,15.30
2016,08,19,05,58,15.30
2016,08,19,05,59,15.30
2016,08,19,06,00,15.20
2016,08,19,06,01,15.20
2016,08,19,06,02,15.20
2016,08,19,06,03,15.20
2016,08,19,06,04,15.10
2016,08,19,06,05,15.10
2016,08,19,06,06,15.10
2016,08,19,06,07,15.10
2016,08,19,06,08,15.10
2016,08,19,06,09,15.10
2016,08,19,06,10,15.10
2016,08,19,06,11,15.10
2016,08,19,06,12,15.10
2016,08,19,06,13,15.10
2016,08,19,06,14,15.20
2016,08,19,06,15,15.20
2016,08,19,06,16,15.20
2016,08,19,06,17,15.20
2016,08,19,06,18,15.20
2016,08,19,06,19,15.20
2016,08,19,06,20,15.20
2016,08,19,06,21,15.10
2016,08,19,06,22,15.10
2016,08,19,06,23,15.10
2016,08,19,06,24,15.00
2016,08,19,06,25,14.90
2016,08,19,06,26,14.90
2016,08,19,06,27,14.90
2016,08,19,06,28,14.80
2016,08,19,06,29,14.80
2016,08,19,06,30,14.70
2016,08,19,06,31,14.70
2016,08,19,06,32,14.70
2016,08,19,06,33,14.70
2016,08,19,06,34,14.70
2016,08,19,06,35,14.70
2016,08,19,06,36,14.60
2016,08,19,06,37,14.60
2016,08,19,06,38,14.60
2016,08,19,06,39,14.60
2016,08,19,06,40,14.50
2016,08,19,06,41,14.50
2016,08,19,06,42,14.50
2016,08,19,06,43,14.50
2016,08,19,06,44,14.50
2016,08,19,06,45,14.50
2016,08,19,06,46,14.50
2016,08,19,06,47,14.50
2016,08,19,06,48,14.50
2016,08,19,06,49,14.50
2016,08,19,06,50,14.60
2016,08,19,06,51,14.60
2016,08,19,06,52,14.60
2016,08,19,06,53,14.60
2016,08,19,06,54,14.60
2016,08,19,06,55,14.60
2016,08,19,06,56,14.70
2016,08,19,06,57,14.70
2016,08,19,06,58,14.70
2016,08,19,06,59,14.70
2016,08,19,07,00,14.80
2016,08,19,07,01,14.80
2016,08,19,07,02,14.90
2016,08,19,07,03,15.00
2016,08,19,07,04,15.00
2016,08,19,07,05,15.10
2016,08,19,07,06,15.20
2016,08,19,07,07,15.20
2016,08,19,07,08,15.30
2016,08,19,07,09,15.30
2016,08,19,07,10,15.40
2016,08,19,07,11,15.50
2016,08,19,07,12,15.50
2016,08,19,07,13,15.60
2016,08,19,07,14,15.60
2016,08,19,07,15,15.70
2016,08,19,07,16,15.70
2016,08,19,07,17,15.80
2016,08,19,07,18,15.80
2016,08,19,07,19,15.80
2016,08,19,07,20,15.90
2016,08,19,07,21,15.90
2016,08,19,07,22,15.90
2016,08,19,07,23,15.90
2016,08,19,07,24,16.00
2016,08,19,07,25,16.00
2016,08,19,07,26,16.10
2016,08,19,07,27,16.20
2016,08,19,07,28,16.20
2016,08,19,07,29,16.30
2016,08,19,07,30,16.40
2016,08,19,07,31,16.50
2016,08,19,07,32,16.60
2016,08,19,07,33,16.70
2016,08,19,07,34,16.80
2016,08,19,07,35,16.90
2016,08,19,07,36,17.00
2016,08,19,07,37,17.10
2016,08,19,07,38,17.20
2016,08,19,07,39,17.30
2016,08,19,07,40,17.40
2016,08,19,07,41,17.50
2016,08,19,07,42,17.60
2016,08,19,07,43,17.70
2016,08,19,07,44,17.70
2016,08,19,07,45,17.70
2016,08,19,07,46,17.80
2016,08,19,07,47,17.80
2016,08,19,07,48,17.80
2016,08,19,07,49,17.80
2016,08,19,07,50,17.90
2016,08,19,07,51,17.90
2016,08,19,07,52,18.00
2016,08,19,07,53,18.10
2016,08,19,07,54,18.10
2016,08,19,07,55,18.20
2016,08,19,07,56,18.30
2016,08,19,07,57,18.40
2016,08,19,07,58,18.60
2016,08,19,07,59,18.70
2016,08,19,08,00,18.80
2016,08,19,08,01,18.90
2016,08,19,08,02,19.10
2016,08,19,08,03,19.20
2016,08,19,08,04,19.30
2016,08,19,08,05,19.30
2016,08,19,08,06,19.40
2016,08,19,08,07,19.40
2016,08,19,08,08,19.50
2016,08,19,08,09,19.50
2016,08,19,08,10,19.60
2016,08,19,08,11,19.60
2016,08,19,08,12,19.70
2016,08,19,08,13,19.80
2016,08,19,08,14,19.80
2016,08,19,08,15,19.90
2016,08,19,08,16,20.00
2016,08,19,08,17,20.20
2016,08,19,08,18,20.30
2016,08,19,08,19,20.40
2016,08,19,08,20,20.50
2016,08,19,08,21,20.60
2016,08,19,08,22,20.60
2016,08,19,08,23,20.70
2016,08,19,08,24,20.80
2016,08,19,08,25,20.90
2016,08,19,08,26,20.90
2016,08,19,08,27,21.00
2016,08,19,08,28,21.20
2016,08,19,08,29,21.20
2016,08,19,08,30,21.30
2016,08,19,08,31,21.50
2016,08,19,08,32,21.50
2016,08,19,08,33,21.70
2016,08,19,08,34,21.80
2016,08,19,08,35,21.90
2016,08,19,08,36,22.00
2016,08,19,08,37,22.10
2016,08,19,08,38,22.20
2016,08,19,08,39,22.30
2016,08,19,08,40,22.40
2016,08,19,08,41,22.50
2016,08,19,08,42,22.50
2016,08,19,08,43,22.60
2016,08,19,08,44,22.60
2016,08,19,08,45,22.70
2016,08,19,08,46,22.70
2016,08,19,08,47,22.80
2016,08,19,08,48,22.80
2016,08,19,08,49,22.90
2016,08,19,08,50,22.90
2016,08,19,08,51,22.90
2016,08,19,08,52,22.90
2016,08,19,08,53,23.00
2016,08,19,08,54,23.00
2016,08,19,08,55,23.10
2016,08,19,08,56,23.10
2016,08,19,08,57,23.00
2016,08,19,08,58,23.00
2016,08,19,08,59,23.00
2016,08,19,09,00,23.00
2016,08,19,09,01,23.00
2016,08,19,09,02,23.00
2016,08,19,09,03,23.00
2016,08,19,09,04,22.90
2016,08,19,09,05,22.90
2016,08,19,09,06,22.90
2016,08,19,09,07,22.90
2016,08,19,09,08,22.90
2016,08,19,09,09,23.00
2016,08,19,09,10,23.00
2016,08,19,09,11,23.10
2016,08,19,09,12,23.10
2016,08,19,09,13,23.10
2016,08,19,09,14,23.10
2016,08,19,09,15,23.10
2016,08,19,09,16,23.10
2016,08,19,09,17,23.10
2016,08,19,09,18,23.20
2016,08,19,09,19,23.20
2016,08,19,09,20,23.20
2016,08,19,09,21,23.20
2016,08,19,09,22,23.20
2016,08,19,09,23,23.30
2016,08,19,09,24,23.30
2016,08,19,09,25,23.30
2016,08,19,09,26,23.30
2016,08,19,09,27,23.40
2016,08,19,09,28,23.40
2016,08,19,09,29,23.40
2016,08,19,09,30,23.40
2016,08,19,09,31,23.40
2016,08,19,09,32,23.40
2016,08,19,09,33,23.40
2016,08,19,09,34,23.40
2016,08,19,09,35,23.30
2016,08,19,09,36,23.30
2016,08,19,09,37,23.20
2016,08,19,09,38,23.20
2016,08,19,09,39,23.10
2016,08,19,09,40,23.10
2016,08,19,09,41,23.10
2016,08,19,09,42,23.10
2016,08,19,09,43,23.10
2016,08,19,09,44,23.10
2016,08,19,09,45,23.20
2016,08,19,09,46,23.20
2016,08,19,09,47,23.10
2016,08,19,09,48,23.10
2016,08,19,09,49,23.20
2016,08,19,09,50,23.20
2016,08,19,09,51,23.20
2016,08,19,09,52,23.20
2016,08,19,09,53,23.20
2016,08,19,09,54,23.20
2016,08,19,09,55,23.20
2016,08,19,09,56,23.10
2016,08,19,09,57,23.10
2016,08,19,09,58,23.20
2016,08,19,09,59,23.20
2016,08,19,10,00,23.20
2016,08,19,10,01,23.30
2016,08,19,10,02,23.40
2016,08,19,10,03,23.40
2016,08,19,10,04,23.40
2016,08,19,10,05,23.30
2016,08,19,10,06,23.30
2016,08,19,10,07,23.30
2016,08,19,10,08,23.30
2016,08,19,10,09,23.20
2016,08,19,10,10,23.00
2016,08,19,10,11,22.90
2016,08,19,10,12,22.70
2016,08,19,10,13,22.60
2016,08,19,10,14,22.50
2016,08,19,10,15,22.40
2016,08,19,10,16,22.40
2016,08,19,10,17,22.40
2016,08,19,10,18,22.30
2016,08,19,10,19,22.30
2016,08,19,10,20,22.30
2016,08,19,10,21,22.40
2016,08,19,10,22,22.40
2016,08,19,10,23,22.40
2016,08,19,10,24,22.50
2016,08,19,10,25,22.60
2016,08,19,10,26,22.60
2016,08,19,10,27,22.60
2016,08,19,10,28,22.70
2016,08,19,10,29,22.70
2016,08,19,10,30,22.70
2016,08,19,10,31,22.70
2016,08,19,10,32,22.80
2016,08,19,10,33,22.80
2016,08,19,10,34,22.80
2016,08,19,10,35,22.80
2016,08,19,10,36,22.80
2016,08,19,10,37,22.90
2016,08,19,10,38,22.90
2016,08,19,10,39,22.90
2016,08,19,10,40,22.90
2016,08,19,10,41,22.90
2016,08,19,10,42,22.90
2016,08,19,10,43,23.00
2016,08,19,10,44,23.10
2016,08,19,10,45,23.10
2016,08,19,10,46,23.20
2016,08,19,10,47,23.20
2016,08,19,10,48,23.20
2016,08,19,10,49,23.20
2016,08,19,10,50,23.20
2016,08,19,10,51,23.20
2016,08,19,10,52,23.30
2016,08,19,10,53,23.30
2016,08,19,10,54,23.30
2016,08,19,10,55,23.40
2016,08,19,10,56,23.50
2016,08,19,10,57,23.60
2016,08,19,10,58,23.70
2016,08,19,10,59,23.80
2016,08,19,11,00,23.90
2016,08,19,11,01,24.00
2016,08,19,11,02,24.00
2016,08,19,11,03,24.10
2016,08,19,11,04,24.10
2016,08,19,11,05,24.10
2016,08,19,11,06,24.00
2016,08,19,11,07,23.90
2016,08,19,11,08,23.90
2016,08,19,11,09,23.80
2016,08,19,11,10,23.80
2016,08,19,11,11,23.80
2016,08,19,11,12,23.70
2016,08,19,11,13,23.70
2016,08,19,11,14,23.70
2016,08,19,11,15,23.70
2016,08,19,11,16,23.70
2016,08,19,11,17,23.70
2016,08,19,11,18,23.70
2016,08,19,11,19,23.70
2016,08,19,11,20,23.60
2016,08,19,11,21,23.60
2016,08,19,11,22,23.70
2016,08,19,11,23,23.70
2016,08,19,11,24,23.60
2016,08,19,11,25,23.60
2016,08,19,11,26,23.60
2016,08,19,11,27,23.60
2016,08,19,11,28,23.60
2016,08,19,11,29,23.60
2016,08,19,11,30,23.70
2016,08,19,11,31,23.60
2016,08,19,11,32,23.60
2016,08,19,11,33,23.70
2016,08,19,11,34,23.80
2016,08,19,11,35,23.80
2016,08,19,11,36,23.90
2016,08,19,11,37,24.00
2016,08,19,11,38,23.90
2016,08,19,11,39,23.90
2016,08,19,11,40,23.90
2016,08,19,11,41,23.90
2016,08,19,11,42,23.90
2016,08,19,11,43,23.80
2016,08,19,11,44,23.70
2016,08,19,11,45,23.60
2016,08,19,11,46,23.60
2016,08,19,11,47,23.60
2016,08,19,11,48,23.60
2016,08,19,11,49,23.60
2016,08,19,11,50,23.60
2016,08,19,11,51,23.60
2016,08,19,11,52,23.60
2016,08,19,11,53,23.60
2016,08,19,11,54,23.70
2016,08,19,11,55,23.80
2016,08,19,11,56,23.90
2016,08,19,11,57,24.00
2016,08,19,11,58,24.10
2016,08,19,11,59,24.10
2016,08,19,12,00,24.10
2016,08,19,12,01,24.10
2016,08,19,12,02,24.00
2016,08,19,12,03,24.00
2016,08,19,12,04,23.90
2016,08,19,12,05,23.90
2016,08,19,12,06,23.90
2016,08,19,12,07,23.90
2016,08,19,12,08,23.90
2016,08,19,12,09,23.90
2016,08,19,12,10,23.80
2016,08,19,12,11,23.80
2016,08,19,12,12,23.80
2016,08,19,12,13,23.80
2016,08,19,12,14,23.80
2016,08,19,12,15,23.80
2016,08,19,12,16,23.80
2016,08,19,12,17,23.80
2016,08,19,12,18,23.80
2016,08,19,12,19,23.80
2016,08,19,12,20,23.70
2016,08,19,12,21,23.70
2016,08,19,12,22,23.70
2016,08,19,12,23,23.70
2016,08,19,12,24,23.70
2016,08,19,12,25,23.70
2016,08,19,12,26,23.70
2016,08,19,12,27,23.70
2016,08,19,12,28,23.60
2016,08,19,12,29,23.60
2016,08,19,12,30,23.70
2016,08,19,12,31,23.70
2016,08,19,12,32,23.70
2016,08,19,12,33,23.80
2016,08,19,12,34,23.80
2016,08,19,12,35,23.90
2016,08,19,12,36,24.00
2016,08,19,12,37,24.00
2016,08,19,12,38,24.10
2016,08,19,12,39,24.10
2016,08,19,12,40,24.10
2016,08,19,12,41,24.20
2016,08,19,12,42,24.20
2016,08,19,12,43,24.10
2016,08,19,12,44,24.10
2016,08,19,12,45,24.00
2016,08,19,12,46,23.90
2016,08,19,12,47,23.90
2016,08,19,12,48,23.90
2016,08,19,12,49,23.90
2016,08,19,12,50,23.90
2016,08,19,12,51,23.90
2016,08,19,12,52,23.90
2016,08,19,12,53,23.80
2016,08,19,12,54,23.80
2016,08,19,12,55,23.80
2016,08,19,12,56,23.80
2016,08,19,12,57,23.90
2016,08,19,12,58,24.00
2016,08,19,12,59,24.00
2016,08,19,13,00,24.10
2016,08,19,13,01,24.20
2016,08,19,13,02,24.20
2016,08,19,13,03,24.30
2016,08,19,13,04,24.30
2016,08,19,13,05,24.30
2016,08,19,13,06,24.30
2016,08,19,13,07,24.30
2016,08,19,13,08,24.30
2016,08,19,13,09,24.40
2016,08,19,13,10,24.40
2016,08,19,13,11,24.40
2016,08,19,13,12,24.40
2016,08,19,13,13,24.40
2016,08,19,13,14,24.40
2016,08,19,13,15,24.40
2016,08,19,13,16,24.40
2016,08,19,13,17,24.40
2016,08,19,13,18,24.40
2016,08,19,13,19,24.30
2016,08,19,13,20,24.30
2016,08,19,13,21,24.20
2016,08,19,13,22,24.20
2016,08,19,13,23,24.20
2016,08,19,13,24,24.30
2016,08,19,13,25,24.30
2016,08,19,13,26,24.40
2016,08,19,13,27,24.50
2016,08,19,13,28,24.60
2016,08,19,13,29,24.70
2016,08,19,13,30,24.80
2016,08,19,13,31,24.90
2016,08,19,13,32,25.10
2016,08,19,13,33,25.20
2016,08,19,13,34,25.30
2016,08,19,13,35,25.50
2016,08,19,13,36,25.60
2016,08,19,13,37,25.80
2016,08,19,13,38,26.00
2016,08,19,13,39,26.10
2016,08,19,13,40,26.20
2016,08,19,13,41,26.30
2016,08,19,13,42,26.30
2016,08,19,13,43,26.40
2016,08,19,13,44,26.50
2016,08,19,13,45,26.60
2016,08,19,13,46,26.70
2016,08,19,13,47,26.70
2016,08,19,13,48,26.80
2016,08,19,13,49,26.80
2016,08,19,13,50,26.90
2016,08,19,13,51,26.90
2016,08,19,13,52,27.00
2016,08,19,13,53,27.10
2016,08,19,13,54,27.10
2016,08,19,13,55,27.20
2016,08,19,13,56,27.20
2016,08,19,13,57,27.20
2016,08,19,13,58,27.20
2016,08,19,13,59,27.30
2016,08,19,14,00,27.40
2016,08,19,14,01,27.50
2016,08,19,14,02,27.60
2016,08,19,14,03,27.60
2016,08,19,14,04,27.70
2016,08,19,14,05,27.70
2016,08,19,14,06,27.70
2016,08,19,14,07,27.60
2016,08,19,14,08,27.60
2016,08,19,14,09,27.60
2016,08,19,14,10,27.60
2016,08,19,14,11,27.60
2016,08,19,14,12,27.70
2016,08,19,14,13,27.80
2016,08,19,14,14,27.90
2016,08,19,14,15,27.90
2016,08,19,14,16,28.00
2016,08,19,14,17,28.10
2016,08,19,14,18,28.10
2016,08,19,14,19,28.20
2016,08,19,14,20,28.20
2016,08,19,14,21,28.30
2016,08,19,14,22,28.30
2016,08,19,14,23,28.30
2016,08,19,14,24,28.30
2016,08,19,14,25,28.30
2016,08,19,14,26,28.30
2016,08,19,14,27,28.30
2016,08,19,14,28,28.30
2016,08,19,14,29,28.30
2016,08,19,14,30,28.30
2016,08,19,14,31,28.30
2016,08,19,14,32,28.30
2016,08,19,14,33,28.30
2016,08,19,14,34,28.30
2016,08,19,14,35,28.30
2016,08,19,14,36,28.20
2016,08,19,14,37,28.20
2016,08,19,14,38,28.20
2016,08,19,14,39,28.20
2016,08,19,14,40,28.20
2016,08,19,14,41,28.20
2016,08,19,14,42,28.10
2016,08,19,14,43,28.10
2016,08,19,14,44,28.10
2016,08,19,14,45,28.10
2016,08,19,14,46,28.00
2016,08,19,14,47,28.00
2016,08,19,14,48,28.00
2016,08,19,14,49,27.90
2016,08,19,14,50,27.90
2016,08,19,14,51,27.90
2016,08,19,14,52,27.80
2016,08,19,14,53,27.80
2016,08,19,14,54,27.80
2016,08,19,14,55,27.80
2016,08,19,14,56,27.80
2016,08,19,14,57,27.90
2016,08,19,14,58,27.90
2016,08,19,14,59,27.80
2016,08,19,15,00,27.80
2016,08,19,15,01,27.80
2016,08,19,15,02,27.80
2016,08,19,15,03,27.80
2016,08,19,15,04,27.80
2016,08,19,15,05,27.80
2016,08,19,15,06,27.80
2016,08,19,15,07,27.80
2016,08,19,15,08,27.90
2016,08,19,15,09,27.90
2016,08,19,15,10,28.00
2016,08,19,15,11,28.00
2016,08,19,15,12,28.10
2016,08,19,15,13,28.10
2016,08,19,15,14,28.10
2016,08,19,15,15,28.20
2016,08,19,15,16,28.20
2016,08,19,15,17,28.20
2016,08,19,15,18,28.30
2016,08,19,15,19,28.30
2016,08,19,15,20,28.40
2016,08,19,15,21,28.50
2016,08,19,15,22,28.60
2016,08,19,15,23,28.60
2016,08,19,15,24,28.60
2016,08,19,15,25,28.60
2016,08,19,15,26,28.60
2016,08,19,15,27,28.60
2016,08,19,15,28,28.60
2016,08,19,15,29,28.60
2016,08,19,15,30,28.60
2016,08,19,15,31,28.70
2016,08,19,15,32,28.80
2016,08,19,15,33,29.00
2016,08,19,15,34,29.10
2016,08,19,15,35,29.10
2016,08,19,15,36,29.20
2016,08,19,15,37,29.20
2016,08,19,15,38,29.20
2016,08,19,15,39,29.30
2016,08,19,15,40,29.30
2016,08,19,15,41,29.30
2016,08,19,15,42,29.40
2016,08,19,15,43,29.40
2016,08,19,15,44,29.40
2016,08,19,15,45,29.40
2016,08,19,15,46,29.40
2016,08,19,15,47,29.40
2016,08,19,15,48,29.40
2016,08,19,15,49,29.30
2016,08,19,15,50,29.30
2016,08,19,15,51,29.30
2016,08,19,15,52,29.20
2016,08,19,15,53,29.30
2016,08,19,15,54,29.30
2016,08,19,15,55,29.30
2016,08,19,15,56,29.30
2016,08,19,15,57,29.30
2016,08,19,15,58,29.30
2016,08,19,15,59,29.30
2016,08,19,16,00,29.30
2016,08,19,16,01,29.30
2016,08,19,16,02,29.30
2016,08,19,16,03,29.30
2016,08,19,16,04,29.40
2016,08,19,16,05,29.40
2016,08,19,16,06,29.40
2016,08,19,16,07,29.40
2016,08,19,16,08,29.40
2016,08,19,16,09,29.40
2016,08,19,16,10,29.40
2016,08,19,16,11,29.30
2016,08,19,16,12,29.30
2016,08,19,16,13,29.30
2016,08,19,16,14,29.30
2016,08,19,16,15,29.30
2016,08,19,16,16,29.40
2016,08,19,16,17,29.40
2016,08,19,16,18,29.40
2016,08,19,16,19,29.40
2016,08,19,16,20,29.30
2016,08,19,16,21,29.30
2016,08,19,16,22,29.30
2016,08,19,16,23,29.30
2016,08,19,16,24,29.30
2016,08,19,16,25,29.30
2016,08,19,16,26,29.30
2016,08,19,16,27,29.30
2016,08,19,16,28,29.40
2016,08,19,16,29,29.40
2016,08,19,16,30,29.40
2016,08,19,16,31,29.40
2016,08,19,16,32,29.50
2016,08,19,16,33,29.50
2016,08,19,16,34,29.60
2016,08,19,16,35,29.60
2016,08,19,16,36,29.70
2016,08,19,16,37,29.70
2016,08,19,16,38,29.70
2016,08,19,16,39,29.70
2016,08,19,16,40,29.70
2016,08,19,16,41,29.70
2016,08,19,16,42,29.70
2016,08,19,16,43,29.70
2016,08,19,16,44,29.70
2016,08,19,16,45,29.60
2016,08,19,16,46,29.60
2016,08,19,16,47,29.60
2016,08,19,16,48,29.60
2016,08,19,16,49,29.60
2016,08,19,16,50,29.60
2016,08,19,16,51,29.60
2016,08,19,16,52,29.60
2016,08,19,16,53,29.60
2016,08,19,16,54,29.60
2016,08,19,16,55,29.50
2016,08,19,16,56,29.50
2016,08,19,16,57,29.50
2016,08,19,16,58,29.50
2016,08,19,16,59,29.50
2016,08,19,17,00,29.50
2016,08,19,17,01,29.50
2016,08,19,17,02,29.60
2016,08,19,17,03,29.60
2016,08,19,17,04,29.60
2016,08,19,17,05,29.60
2016,08,19,17,06,29.60
2016,08,19,17,07,29.60
2016,08,19,17,08,29.60
2016,08,19,17,09,29.60
2016,08,19,17,10,29.60
2016,08,19,17,11,29.70
2016,08,19,17,12,29.70
2016,08,19,17,13,29.70
2016,08,19,17,14,29.70
2016,08,19,17,15,29.80
2016,08,19,17,16,29.80
2016,08,19,17,17,29.80
2016,08,19,17,18,29.80
2016,08,19,17,19,29.80